{"data":{"norad_id":68352,"intl_designator":"2026-060C","name":"CENTISPACE-2 S3","alt_names":[],"object_type":"PAYLOAD","status":"ACTIVE","operator":null,"country":"PRC","launch_date":"2026-03-22","launch_site_code":"YSLA","launch_vehicle":null,"mission":null,"orbit_class":"UNKNOWN","rcs_meters":null,"size_class":null,"mass_kg":null,"dimensions":null,"purposes":[],"wikipedia_slug":null,"has_3d_model":false,"image_url":null,"decayed_at":null,"tle_current":{"epoch":"2026-09-17T21:06:31.862016Z","epoch_age_seconds":298584,"freshness":"STALE","line1":"1 68352U 26060C   26260.87953544 -.00000164  00000+0 -30729-5 0  9997","line2":"2 68352  54.9782  35.8030 0009330 277.3203  82.6713 14.23806283 26168","mean_motion":14.23806283,"eccentricity":0.000933,"inclination_deg":54.9782,"raan_deg":35.803,"arg_perigee_deg":277.3203,"mean_anomaly_deg":82.6713,"bstar":-3.0729e-6,"rev_number":2616,"period_min":101.13735395,"perigee_km":805.80005979373,"apogee_km":819.21780510368,"semimajor_km":7190.6459324487,"source":"CELESTRAK","updated_at":"2026-09-20T09:00:24.158622Z"}}}